Location: ??
(35.5052°N, 139.7262°E)
Time: 07:59:24
(UTC+00:00)

BREEZE-M DEB (TANK) - Visible Passes

Search period start: 28 October 2021 00:00
Search period end: 07 November 2021 00:00
Orbit: 443 x 13219 km, 46.0° (Epoch: 26 October)

Date Brightness Start Highest point End Pass type
(mag) Time Alt. Az. Time Alt. Az. Time Alt. Az.
29 Oct 6.2 08:40:39 10° WNW 09:01:49 47° WSW 09:07:41 10° SSE visible
29 Oct 10.3 19:03:21 10° SE 20:03:53 20° E 20:47:46 10° ENE visible
30 Oct 6.9 10:06:02 10° WNW 10:13:12 15° W 10:17:18 10° SW visible
30 Oct 9.7 19:51:15 10° SSE 21:17:38 39° ESE 22:15:19 10° ENE visible
01 Nov 6.2 07:54:12 10° WNW 08:21:12 59° SW 08:27:43 10° SSE visible
01 Nov 10.5 18:35:36 10° ESE 19:21:29 16° E 19:57:30 10° ENE visible
02 Nov 6.7 09:20:35 10° WNW 09:33:08 23° WSW 09:38:29 10° SSW visible
02 Nov 9.9 19:12:47 10° SSE 20:33:24 34° E 21:31:03 10° ENE visible
03 Nov 9.4 20:16:30 10° S 21:50:14 54° ESE 22:52:28 10° NE visible
04 Nov 10.6 18:19:30 10° E 18:39:39 11° E 18:57:40 10° ENE visible
05 Nov 6.7 08:34:51 10° WNW 08:52:57 31° WSW 08:59:07 10° S visible
05 Nov 9.9 18:35:42 10° SE 19:49:42 29° E 20:45:47 10° ENE visible
06 Nov 9.6 19:35:52 10° S 21:04:35 48° ESE 22:09:18 10° NE visible
